TimeCDT,TemperatureF,Dew PointF,Humidity,Sea Level PressureIn,VisibilityMPH,Wind Direction,Wind SpeedMPH,Gust SpeedMPH,PrecipitationIn,Events,Conditions,WindDirDegrees,DateUTC
12:15 AM,53.6,37.4,54,29.94,10.0,SW,4.6,-,N/A,,Overcast,230,2014-03-22 05:15:00
12:35 AM,55.4,39.2,54,29.94,10.0,SW,5.8,-,N/A,,Mostly Cloudy,230,2014-03-22 05:35:00
12:55 AM,55.4,44.6,67,29.95,10.0,NW,12.7,25.3,N/A,,Scattered Clouds,320,2014-03-22 05:55:00
1:15 AM,55.4,42.8,63,29.95,10.0,WNW,6.9,-,N/A,,Partly Cloudy,290,2014-03-22 06:15:00
1:35 AM,55.4,42.8,63,29.96,10.0,WNW,6.9,-,N/A,,Clear,300,2014-03-22 06:35:00
1:55 AM,57.2,42.8,59,29.97,10.0,NNW,9.2,-,N/A,,Partly Cloudy,330,2014-03-22 06:55:00
2:15 AM,55.4,39.2,54,29.97,10.0,NW,10.4,-,N/A,,Partly Cloudy,320,2014-03-22 07:15:00
2:35 AM,55.4,39.2,54,29.97,10.0,North,11.5,-,N/A,,Scattered Clouds,350,2014-03-22 07:35:00
2:55 AM,57.2,37.4,48,29.98,10.0,North,8.1,-,N/A,,Overcast,350,2014-03-22 07:55:00
3:15 AM,55.4,37.4,51,29.98,10.0,North,9.2,-,N/A,,Mostly Cloudy,360,2014-03-22 08:15:00
3:35 AM,55.4,37.4,51,29.99,10.0,North,6.9,-,N/A,,Scattered Clouds,360,2014-03-22 08:35:00
3:55 AM,55.4,37.4,51,29.99,10.0,North,5.8,-,N/A,,Mostly Cloudy,10,2014-03-22 08:55:00
4:15 AM,53.6,37.4,54,29.99,10.0,North,8.1,-,N/A,,Scattered Clouds,360,2014-03-22 09:15:00
4:35 AM,53.6,35.6,51,30.00,10.0,North,8.1,-,N/A,,Scattered Clouds,360,2014-03-22 09:35:00
4:55 AM,53.6,37.4,54,30.01,10.0,North,10.4,-,N/A,,Mostly Cloudy,350,2014-03-22 09:55:00
5:15 AM,53.6,35.6,51,30.02,10.0,North,10.4,-,N/A,,Scattered Clouds,360,2014-03-22 10:15:00
5:35 AM,53.6,35.6,51,30.02,10.0,North,12.7,-,N/A,,Clear,360,2014-03-22 10:35:00
5:55 AM,51.8,33.8,50,30.03,10.0,North,10.4,-,N/A,,Clear,10,2014-03-22 10:55:00
6:15 AM,51.8,33.8,50,30.04,10.0,North,15.0,-,N/A,,Clear,360,2014-03-22 11:15:00
6:35 AM,51.8,33.8,50,30.06,10.0,North,12.7,-,N/A,,Clear,360,2014-03-22 11:35:00
6:55 AM,51.8,32.0,47,30.08,10.0,North,10.4,-,N/A,,Mostly Cloudy,10,2014-03-22 11:55:00
7:15 AM,51.8,33.8,50,30.09,10.0,North,8.1,-,N/A,,Overcast,360,2014-03-22 12:15:00
7:35 AM,50.0,33.8,54,30.10,10.0,North,10.4,-,N/A,,Overcast,360,2014-03-22 12:35:00
7:55 AM,50.0,33.8,54,30.11,10.0,North,11.5,-,N/A,,Overcast,360,2014-03-22 12:55:00
8:15 AM,50.0,33.8,54,30.11,10.0,North,9.2,-,N/A,,Overcast,360,2014-03-22 13:15:00
8:35 AM,51.8,35.6,54,30.12,10.0,North,8.1,-,N/A,,Overcast,360,2014-03-22 13:35:00
8:55 AM,51.8,33.8,50,30.14,10.0,North,10.4,-,N/A,,Partly Cloudy,360,2014-03-22 13:55:00
9:15 AM,53.6,35.6,51,30.15,10.0,North,10.4,-,N/A,,Clear,10,2014-03-22 14:15:00
9:35 AM,53.6,35.6,51,30.16,10.0,North,15.0,20.7,N/A,,Partly Cloudy,10,2014-03-22 14:35:00
9:55 AM,53.6,33.8,47,30.17,10.0,North,16.1,-,N/A,,Partly Cloudy,10,2014-03-22 14:55:00
10:15 AM,53.6,33.8,47,30.17,10.0,NNE,15.0,19.6,N/A,,Mostly Cloudy,20,2014-03-22 15:15:00
10:35 AM,55.4,35.6,47,30.17,10.0,NNE,13.8,-,N/A,,Mostly Cloudy,30,2014-03-22 15:35:00
10:55 AM,55.4,35.6,47,30.17,10.0,NE,13.8,-,N/A,,Scattered Clouds,40,2014-03-22 15:55:00
11:15 AM,55.4,33.8,44,30.16,10.0,NE,17.3,-,N/A,,Partly Cloudy,40,2014-03-22 16:15:00
11:35 AM,55.4,33.8,44,30.17,10.0,NE,15.0,-,N/A,,Clear,40,2014-03-22 16:35:00
11:55 AM,57.2,33.8,41,30.16,10.0,North,12.7,20.7,N/A,,Clear,10,2014-03-22 16:55:00
12:15 PM,57.2,33.8,41,30.16,10.0,NE,15.0,20.7,N/A,,Clear,40,2014-03-22 17:15:00
12:35 PM,57.2,35.6,44,30.16,10.0,NNE,12.7,-,N/A,,Clear,30,2014-03-22 17:35:00
12:55 PM,57.2,35.6,44,30.16,10.0,NE,12.7,18.4,N/A,,Clear,40,2014-03-22 17:55:00
1:15 PM,57.2,35.6,44,30.16,10.0,NE,10.4,-,N/A,,Clear,40,2014-03-22 18:15:00
1:35 PM,57.2,35.6,44,30.15,10.0,NNE,12.7,18.4,N/A,,Clear,30,2014-03-22 18:35:00
1:55 PM,57.2,35.6,44,30.14,10.0,NNE,10.4,-,N/A,,Clear,30,2014-03-22 18:55:00
2:15 PM,59.0,33.8,39,30.13,10.0,North,11.5,-,N/A,,Clear,10,2014-03-22 19:15:00
2:35 PM,59.0,35.6,42,30.13,10.0,North,9.2,18.4,N/A,,Partly Cloudy,10,2014-03-22 19:35:00
2:55 PM,60.8,33.8,36,30.12,10.0,NE,13.8,-,N/A,,Clear,50,2014-03-22 19:55:00
3:15 PM,59.0,33.8,39,30.12,10.0,ENE,11.5,17.3,N/A,,Clear,70,2014-03-22 20:15:00
3:35 PM,60.8,35.6,39,30.11,10.0,ENE,13.8,-,N/A,,Clear,60,2014-03-22 20:35:00
3:55 PM,60.8,33.8,36,30.10,10.0,ENE,15.0,-,N/A,,Clear,70,2014-03-22 20:55:00
4:15 PM,60.8,33.8,36,30.11,10.0,NE,15.0,-,N/A,,Clear,50,2014-03-22 21:15:00
4:35 PM,60.8,33.8,36,30.11,10.0,ENE,12.7,17.3,N/A,,Clear,70,2014-03-22 21:35:00
4:55 PM,60.8,30.2,31,30.11,10.0,ENE,15.0,-,N/A,,Clear,60,2014-03-22 21:55:00
5:15 PM,59.0,35.6,42,30.11,10.0,ENE,13.8,-,N/A,,Clear,70,2014-03-22 22:15:00
5:35 PM,59.0,35.6,42,30.11,10.0,East,15.0,-,N/A,,Clear,80,2014-03-22 22:35:00
5:55 PM,57.2,33.8,41,30.11,10.0,East,16.1,-,N/A,,Clear,80,2014-03-22 22:55:00
6:15 PM,57.2,33.8,41,30.11,10.0,ENE,15.0,20.7,N/A,,Clear,70,2014-03-22 23:15:00
6:35 PM,55.4,33.8,44,30.10,10.0,ENE,13.8,-,N/A,,Clear,70,2014-03-22 23:35:00
6:55 PM,55.4,33.8,44,30.11,10.0,East,12.7,-,N/A,,Clear,80,2014-03-22 23:55:00
7:15 PM,53.6,33.8,47,30.12,10.0,East,9.2,-,N/A,,Clear,80,2014-03-23 00:15:00
7:35 PM,53.6,33.8,47,30.11,10.0,ENE,12.7,-,N/A,,Clear,60,2014-03-23 00:35:00
7:55 PM,53.6,33.8,47,30.13,10.0,ENE,9.2,-,N/A,,Partly Cloudy,70,2014-03-23 00:55:00
8:15 PM,51.8,35.6,54,30.13,10.0,NE,12.7,-,N/A,,Scattered Clouds,50,2014-03-23 01:15:00
8:35 PM,51.8,35.6,54,30.13,10.0,NE,16.1,-,N/A,,Scattered Clouds,50,2014-03-23 01:35:00
8:55 PM,51.8,33.8,50,30.14,10.0,ENE,15.0,-,N/A,,Overcast,60,2014-03-23 01:55:00
9:15 PM,51.8,33.8,50,30.18,10.0,ENE,13.8,-,N/A,,Mostly Cloudy,60,2014-03-23 02:15:00
9:35 PM,50.0,33.8,54,30.17,10.0,NE,17.3,-,N/A,,Mostly Cloudy,50,2014-03-23 02:35:00
9:55 PM,48.2,33.8,58,30.18,10.0,NE,13.8,-,N/A,,Mostly Cloudy,50,2014-03-23 02:55:00
10:15 PM,46.4,35.6,66,30.20,10.0,ENE,15.0,-,N/A,,Overcast,60,2014-03-23 03:15:00
10:35 PM,46.4,35.6,66,30.19,10.0,ENE,19.6,24.2,0.01,,Overcast,60,2014-03-23 03:35:00
10:55 PM,44.6,35.6,71,30.19,10.0,NE,19.6,-,0.01,,Overcast,50,2014-03-23 03:55:00
11:15 PM,44.6,35.6,71,30.22,5.0,NE,11.5,-,0.04,,Overcast,40,2014-03-23 04:15:00
11:35 PM,44.6,35.6,71,30.21,9.0,NE,16.1,-,0.05,,Overcast,40,2014-03-23 04:35:00
11:55 PM,44.6,35.6,71,30.22,10.0,NNE,13.8,-,0.06,,Overcast,30,2014-03-23 04:55:00